Flag for U.S.A. Weather past 2 weeks in Albany, New York, U.S.A.

Now
28 °F

Light snow. More clouds than sun.


Feels Like: 19 °F
Forecast: 26 / 34 °F
Wind: 10 mph from Northwest

Location: Albany County Airport

Current Time: Mar 28, 2015 at 2:27:57 PM

Latest Report: Mar 28, 2015 at 1:51 PM


Visibility: 1 mi

Pressure: 29.93 "Hg

Humidity: 72%

Dew point: 20 °F

Location of AlbanyLocation

Historic Weather in Albany — Graph

°F

Albany temperature yesterday

Maximum temperature yesterday: 45 °F (at 1:51 PM)
Minimum temperature yesterday: 34 °F (at 11:51 PM)
Average temperature yesterday: 39 °F

Past Weeks' High & Low Weather Summary

 TemperatureHumidityPressure
High49 °F (Mar 25, 1:51 PM)96% (Mar 14, 9:51 PM)30.57 "Hg (Mar 14, 9:51 PM)
Low13 °F (Mar 24, 5:51 AM)19% (Mar 19, 2:51 PM)29.56 "Hg (Mar 17, 12:51 PM)
Average32 °F57%30.04 "Hg
* Reported Mar 13 12:51 PM — Mar 28 12:51 PM, Albany, Weather by CustomWeather, © 2015

Note: Actual official high and low records may vary slightly from our data, if they occured in-between our weather recording intervals... More about our weather records

Advertising

Albany weather history for previous 24 hours

 ConditionsComfort  
Time TempWeatherWind HumidityBarometerVisibility
12:51 PM
Sat, Mar 28
26 °FLight snow. Mostly cloudy.12 mph81%29.94 "Hg1 mi
11:51 AM25 °FLight snow. More clouds than sun.10 mph81%29.95 "Hg1 mi
10:51 AM26 °FLight snow. Mostly cloudy.10 mph77%29.94 "Hg1 mi
9:51 AM27 °FLight snow. Overcast.9 mph75%29.92 "Hg2 mi
8:51 AM27 °FLight snow. Mostly cloudy.12 mph75%29.90 "Hg10 mi
7:51 AM27 °FLight snow. Overcast.9 mph75%29.89 "Hg8 mi
6:51 AM28 °FLight snow. Overcast.12 mph72%29.86 "Hg9 mi
5:51 AM28 °FLight snow. Overcast.8 mph75%29.85 "Hg8 mi
4:51 AM29 °FLight snow. Overcast.9 mph72%29.85 "Hg9 mi
3:51 AM30 °FLight snow. Overcast.13 mph72%29.83 "Hg8 mi
2:51 AM30 °FLight snow. Mostly cloudy.9 mph82%29.85 "Hg8 mi
1:51 AM31 °FLight snow. Overcast.7 mph79%29.87 "Hg7 mi
12:51 AM32 °FLight snow. Mostly cloudy.6 mph79%29.88 "Hg7 mi
12:03 AM34 °FLight snow. Overcast.10 mph67%29.86 "Hg9 mi
11:51 PM
Fri, Mar 27
34 °FLight snow. Mostly cloudy.9 mph67%29.87 "Hg9 mi
10:51 PM35 °FLight snow. Mostly cloudy.8 mph61%29.85 "Hg10 mi
9:51 PM36 °FLight snow. Mostly cloudy.12 mph57%29.84 "Hg10 mi
8:51 PM37 °FLight snow. Mostly cloudy.10 mph57%29.82 "Hg10 mi
7:51 PM38 °FBroken clouds.12 mph58%29.79 "Hg10 mi
6:51 PM40 °FPartly sunny.15 mph55%29.78 "Hg10 mi
5:51 PM43 °FPartly sunny.13 mph51%29.76 "Hg10 mi
4:51 PM45 °FPartly sunny.15 mph49%29.74 "Hg10 mi
3:51 PM45 °FBroken clouds.15 mph51%29.73 "Hg10 mi
2:51 PM43 °FBroken clouds.13 mph53%29.74 "Hg10 mi
Weather by CustomWeather, © 2015

See weather overviewHow to use our weather pages